Other Public Products
Issued by NWS Grand Forks, ND

Home | Current Version | Previous Version | Text Only | Print | Product List | Glossary Off
Versions: 1 2 3 4 5 6 7 8 9 10 11 12 13 14 15 16 17 18 19 20 21 22 23 24 25 26 27 28 29 30 31 32 33 34 35 36 37 38 39 40 41 42 43 44 45 46 47 48 49 50

000
FPUS83 KFGF 011731
OPUFGF
PRAIRIE TO PINES WEATHER ROUNDUP
NATIONAL WEATHER SERVICE EASTERN NORTH DAKOTA/GRAND FORKS ND
1200 PM CDT WED OCT 01 2014

 **SATELLITE DATA USED TO AUGMENT SKY COVER AT AUTOMATED STATIONS**
 *****  WEATHER ACROSS EASTERN NORTH DAKOTA  *****

CITY           SKY/WX    TMP DP  RH WIND       PRES   REMARKS
GRAND FORKS    CLOUDY    64  54  68 SW15      29.58S
GRAND FORKS AF CLOUDY    64  55  72 SW16      29.59R
GRAND CITY NWS   N/A     64 N/A N/A SW20        N/A
BUXTON           N/A     67  55  64 SW13        N/A
DEVILS LAKE    CLOUDY    61  50  67 W23       29.56R
FARGO          MOSUNNY   68  54  60 SW14      29.64F
WAHPETON ARPT  PTSUNNY   68  54  60 SW12      29.67F
$$

 *****  WEATHER ACROSS CENTRAL AND WESTERN NORTH DAKOTA  *****

CITY           SKY/WX    TMP DP  RH WIND       PRES   REMARKS
JAMESTOWN      PTSUNNY   62  51  67 W21G29    29.64S
BISMARCK       CLOUDY    59  50  72 W22       29.72R
MINOT          CLOUDY    57  50  77 W24       29.61R
MINOT AFB      CLOUDY    55  55  99 NW20      29.59R
GARRISON         N/A     56  51  84 W21G30    29.66R
WILLISTON      CLOUDY    55  48  77 W16G26    29.71R
DICKINSON      CLOUDY    53  47  79 W22       29.75R
HETTINGER      CLOUDY    51  46  83 W18       29.81R
$$

 *****  OTHER OBSERVATIONS NORTHEAST NORTH DAKOTA  *****

CITY           SKY/WX    TMP DP  RH WIND       PRES   REMARKS
WALHALLA         N/A     59  57  94 W10G17    29.52S
LANGDON        CLOUDY    59  54  82 W26G33    29.53R
CAVALIER       PTSUNNY   63  55  77 SW9G17    29.52F
GRAFTON        PTSUNNY   66  55  68 SW18G25   29.55S
CANDO          CLOUDY    57  52  82 W20       29.57R
FORT TOTTEN      N/A     59  53  81 W9        29.95
ROLLA          CLOUDY    55  52  88 W16G24    29.55R
RUGBY          PTSUNNY   57  54  88 W17G23    29.57S
 ***** THE ABOVE OBSERVATIONS ARE NON NWS ARE NOT QUALITY
        CONTROLLED AND MAY MIS-REPORT RAIN FOR SNOW...
$$

 *****  OTHER OBSERVATIONS SOUTHEAST NORTH DAKOTA *****

CITY           SKY/WX    TMP DP  RH WIND       PRES   REMARKS
COOPERSTOWN    NOT AVBL
VALLEY CITY    PTSUNNY   63  55  77 W17G26    29.65R
OAKES            N/A     63  54  72 W16       29.68S
GWINNER        SUNNY     66  54  63 W9        29.68F
BUFFALO          N/A     66  48  52 W16         N/A
WYNDMERE         N/A     66  55  68 W7          N/A
 ***** THE ABOVE OBSERVATIONS ARE NON NWS ARE NOT QUALITY
       CONTROLLED AND MAY MIS-REPORT RAIN FOR SNOW...
$$

  *****  WEATHER ACROSS NORTHERN MINNESOTA  *****

CITY           SKY/WX    TMP DP  RH WIND       PRES   REMARKS
FLAG ISLAND    CLOUDY    59  55  88 S20       29.57S
WARROAD        CLOUDY    63  55  77 S9        29.60R
ROSEAU         CLOUDY    64  55  72 S16G25    29.59R
HALLOCK        MOSUNNY   64  55  72 SW20G25   29.54S
THF RVR FALLS  PTSUNNY   64  54  68 S18       29.61F
HALSTAD          N/A     66  50  55 SW15        N/A
FOSSTON        PTSUNNY   64  54  68 S17G25    29.64F
BAUDETTE       CLOUDY    58  52  80 S14G25    29.65S
WASKISH        CLOUDY    55  54  94 SE7G18    29.68F
CROOKSTON      PTSUNNY   66  54  63 SW16G24   29.61F
$$
  *****  WEATHER ACROSS CENTRAL AND WEST MINNESOTA  *****

CITY           SKY/WX    TMP DP  RH WIND       PRES   REMARKS
BEMIDJI        CLOUDY    55  51  87 S12G20    29.70S
PARK RAPIDS    CLOUDY    53  51  93 SE15      29.72S
WADENA         CLOUDY    55  52  88 S8        29.72S
DETROIT LAKES  CLOUDY    59  55  88 SE10      29.70S
MOORHEAD       NOT AVBL
FERGUS FALLS   MOSUNNY   63  55  77 S14       29.69F
ELBOW LAKE     CLOUDY    62  58  87 S12       29.70F
MORRIS MN      PTSUNNY   64  61  88 S10       29.70F
STAPLES        LGT RAIN  52  48  87 SE7       29.74F
WHEATON        PTSUNNY   68  54  60 SW13G20   29.70F
$$
  *****  WEATHER ELSEWHERE ACROSS MINNESOTA  *****

CITY           SKY/WX    TMP DP  RH WIND       PRES   REMARKS
DULUTH         LGT RAIN  49  46  90 SE10      29.84F FOG
INTRNTL FALLS  CLOUDY    52  47  83 S9G16     29.72F
ELY            DRIZZLE   48  46  93 S12       29.82S
CLOQUET        LGT RAIN  48  46  93 SE6       29.83F
BRAINERD       CLOUDY    50  48  93 S9        29.77F FOG
HIBBING        CLOUDY    50  46  86 SE7G17    29.81F FOG
ALEXANDRIA     CLOUDY    58  56  93 S8        29.74S FOG
SAINT CLOUD    CLOUDY    54  51  90 SE15      29.79S
MINNEAPOLIS    RAIN      50  49  96 SE5       29.82S FOG
$$

  *****  WEATHER ACROSS SOUTH DAKOTA  *****

CITY           SKY/WX    TMP DP  RH WIND       PRES   REMARKS
SIOUX FALLS    PTSUNNY   69  60  73 SW7       29.73R
BROOKINGS      NOT AVBL
WATERTOWN      MOSUNNY   66  54  65 W10       29.72S
HURON          MOSUNNY   68  52  56 NW10      29.73F
SISSETON         N/A     67  56  67 NW12      29.69S
ABERDEEN       PTSUNNY   66  52  60 NW10      29.71F
MITCHELL       SUNNY     71  52  50 NW12      29.74S
PIERRE         MOSUNNY   66  51  58 NW17      29.78S
MOBRIDGE       PTSUNNY   64  50  60 NW18G25   29.73R
RAPID CITY     PTSUNNY   60  44  55 N22G28    29.86R
$$

  *****  SOME WEATHER IN NEARBY STATES *****

CITY           SKY/WX    TMP DP  RH WIND       PRES   REMARKS
GLASGOW MT     PTSUNNY   53  42  66 NW18G25   29.82S
GREAT FALLS MT PTSUNNY   52  40  63 SW16      29.97F
CHEYENNE WY    MOSUNNY  N/A N/A N/A S9G21     29.92F
SCOTTSBLUFF NE MOSUNNY   60  48  64 VRB5      29.89F
OMAHA NE       PTSUNNY   69  62  78 VRB6      29.76S
DES MOINES IA  CLOUDY    68  62  81 S10       29.79S
DAVENPORT IA   NOT AVBL
CHICAGO IL     MOSUNNY   63  48  58 SE8       29.99F
EAU CLAIRE WI  LGT RAIN  50  48  93 SE8       29.85F FOG
LA CROSSE WI   LGT RAIN  57  51  80 SE7       29.86F
$$

  *****  SOME NATIONAL WEATHER *****

CITY           SKY/WX    TMP DP  RH WIND       PRES   REMARKS
LA GUARDIA NY  LGT RAIN  63  57  82 NE9       30.04F
RALEIGH NC     CLOUDY    73  62  68 CALM      30.04S
ATLANTA GA     PTSUNNY   81  59  47 CALM      30.02F
NEW ORLEANS LA CLOUDY    77  73  87 SE10      29.94F
OKLAHOMA CITY  MOSUNNY   86  65  49 S21       29.75F
ALBUQUERQUE NM MOSUNNY   65  35  33 CALM      30.01S
SALT LAKE CITY MOSUNNY   53  37  54 W16       30.08R
LOS ANGELES CA MOSUNNY   71  61  70 SE5       29.83S
BOISE ID       SUNNY     51  40  65 NW10      30.17S
SEATTLE WA     CLOUDY    54  50  86 S7        30.25R
$$

*** WEATHER ACROSS MANITOBA...SASKATCHEWAN AND ONTARIO ***
                ***ONTARIO***

CITY           SKY/WX    TMP DP  RH WIND       PRES   REMARKS
GERALDTON      CLOUDY    55  50  82 S15G24    29.92F
THUNDER BAY    CLOUDY    52  46  82 S10       29.92F
SIOUX LOOKOUT  CLOUDY    52  48  87 S10G17    29.72F
TORONTO        DRIZZLE   59  57  94 E6        30.10S FOG
BIG TROUT LK   SUNNY     55  41  58 S15       29.64F
PICKLE LAKE    CLOUDY    52  41  66 S15G24    29.74F
DRYDEN         CLOUDY    54  48  82 S13G23    29.69F
KENORA         LGT RAIN  55  52  88 S20G31    29.59F
$$
                *** MANITOBA***

CITY           SKY/WX    TMP DP  RH WIND       PRES   REMARKS
BRANDON        DRIZZLE   54  52  94 W15       29.47S
DAUPHIN        CLOUDY    55  52  88 W14G22    29.39S
ISLAND LAKE    CLOUDY    55  48  76 SE12      29.45F
PILOT MOUND      N/A     55  50  82 SW16G22     N/A
THE PAS        LGT RAIN  52  50  93 NW3       29.35  FOG
THOMPSON       CLOUDY    46  46 100 NE6       29.38
WINNIPEG       CLOUDY    59  52  77 SW16G22   29.49S
LYNN LAKE      RAIN      48  48 100 N6        29.42F
CHURCHILL      CLOUDY    45  43  93 SE14      29.54F
GILLAM         PTSUNNY  N/A N/A N/A E5          N/A
$$
                ***SASKATCHEWAN***

CITY           SKY/WX    TMP DP  RH WIND       PRES   REMARKS
ESTEVAN        CLOUDY    54  50  87 W18       29.63  FOG
KINDERSLEY     MOSUNNY   52  39  62 W16       29.78F
LLOYDMINSTER   MOSUNNY   50  37  62 W17       29.74
PRINCE ALBERT  PTSUNNY   52  43  71 NW21      29.60R
REGINA         CLOUDY    50  46  87 NW22G29   29.65R
YORKTON        CLOUDY    54  50  87 NW24G32   29.47R



USA.gov is the U.S. government's official web portal to all federal, state and local government web resources and services.